Regional Weather Roundup
Issued by NWS

Home | Current Version | Previous Version | Text Only | Print | Product List | Glossary On
Versions: 1 2 3 4 5 6 7 8 9 10 11 12 13 14 15 16 17 18 19 20 21 22 23 24 25 26 27 28 29 30 31 32 33 34 35 36 37 38 39 40 41 42 43 44 45 46 47 48 49 50
000
ASUS43 KMKX 291011
RWRWI

WISCONSIN REGIONAL WEATHER ROUNDUP
NATIONAL WEATHER SERVICE MILWAUKEE/SULLIVAN WI
500 AM CDT MON MAY 29 2017

NOTE: "FAIR" INDICATES FEW OR NO CLOUDS BELOW 12,000 FEET WITH NO
SIGNIFICANT WEATHER AND/OR OBSTRUCTIONS TO VISIBILITY.

WIZ001-002-006>008-014>016-023>028-291100-
NORTHWEST WISCONSIN

CITY           SKY/WX    TMP DP  RH WIND       PRES   REMARKS
SUPERIOR ARPT  NOT AVBL
ASHLAND        CLOUDY    52  48  86 W9        29.62R
HAYWARD        MOCLDY    50  47  89 SW3       29.65S
SIREN          CLOUDY    52  49  90 W7        29.69R
CUMBERLAND     CLOUDY    50  46  87 W12G17    29.69R
RICE LAKE      CLOUDY    52  48  88 W5        29.69S
CHETEK         CLOUDY    51  49  90 W3        29.69R
LADYSMITH      PTCLDY    49  47  92 SW5       29.68R
EAU CLAIRE     CLOUDY    51  49  92 W9        29.69R
MENOMONIE      CLOUDY    54  49  86 W7        29.71R
NEW RICHMOND   LGT RAIN  52  50  93 W12       29.72R
OSCEOLA        CLOUDY    53  53 100 W10       29.75R
$$

WIZ003>005-009-010-017-018-291100-
NORTH CENTRAL WISCONSIN

CITY           SKY/WX    TMP DP  RH WIND       PRES   REMARKS
MANITOWISH WTR CLOUDY    47  47 100 SW5       29.62S
ARBOR VITAE    PTCLDY    49  47  93 SW6       29.62F
WOODRUFF       PTCLDY    49  47  93 SW6       29.62F
RHINELANDER    CLEAR     48  46  93 W7        29.64F
EAGLE RIVER    PTCLDY    44  44 100 SW6       29.62S
LAND O LAKES   PTCLDY    47  47  97 CALM      29.63S
PHILLIPS       CLOUDY    47  47  97 W3        29.64F
TOMAHAWK       CLEAR     47  45  91 CALM      29.66R
MEDFORD        PTCLDY    49  45  88 SW3       29.67R
MERRILL        CLOUDY    50  47  90 SW3       29.66S
$$

WIZ029-030-035-036-043>047-291100-
CENTRAL WISCONSIN

CITY           SKY/WX    TMP DP  RH WIND       PRES   REMARKS
WAUSAU         CLOUDY    52  46  80 W9        29.66S
MOSINEE        CLOUDY    48  48 100 SW6       29.68F
MARSHFIELD     CLEAR     49  45  86 SW8       29.68R
STEVENS POINT  CLOUDY    50  48  92 SW6       29.69S
WAUPACA        CLEAR     51  49  92 CALM      29.69R
WAUTOMA        CLEAR     50  48  93 W6        29.70S
WISC RAPIDS    CLEAR     51  46  83 W6        29.70S
CAMP DOUGLAS   CLEAR     43  43  99 SE3       29.71R
$$

WIZ011>013-019>022-031-037>040-048>050-291100-
NORTHEAST WISCONSIN

CITY           SKY/WX    TMP DP  RH WIND       PRES   REMARKS
ANTIGO         PTCLDY    47  46  98 SW6       29.66S
SHAWANO        PTCLDY    54  48  81 CALM      29.67S
OCONTO         CLOUDY    52  47  84 SW6       29.65F
STURGEON BAY   MOCLDY    54  49  83 SW7       29.67R
GREEN BAY      CLOUDY    55  50  83 SW5       29.67S
MANITOWOC      CLOUDY    56  48  74 NW5       29.69S
APPLETON       MOCLDY    54  45  71 SW5       29.67S
CLINTONVILLE   MOCLDY    52  46  82 W3        29.67S
OSHKOSH        MOCLDY    52  47  83 S6        29.68S
$$

WIZ032>034-041-042-053>061-291100-
SOUTHWEST WISCONSIN

CITY           SKY/WX    TMP DP  RH WIND       PRES   REMARKS
LA CROSSE      CLEAR     57  46  66 W13G21    29.72S
SPARTA         CLEAR     41  40  99 CALM      29.73R
VIROQUA        CLEAR     50  44  78 CALM      29.75R
BOSCOBEL       CLEAR     52  47  83 SW5       29.77R
PRAIRIE DU CHI CLEAR     52  44  74 W8        29.79R
PLATTEVILLE    MOCLDY    54  49  84 SW7       29.81R
$$

WIZ056-057-062-063-064-067-068-291100-
SOUTH CENTRAL WISCONSIN

CITY           SKY/WX    TMP DP  RH WIND       PRES   REMARKS
REEDSBURG      PTCLDY    49  47  92 CALM      29.73R
BARABOO/DELLS  PTCLDY    51  44  75 W3        29.73R
LONE ROCK      CLEAR     49  45  86 CALM      29.75R
MINERAL POINT  CLOUDY    55  45  67 SW7       29.79R
MADISON        MOCLDY    57  45  64 VRB5      29.74R
MIDDLETON      MOCLDY    56  46  68 W8        29.76R
WATERTOWN      PTCLDY    51  49  93 SW6       29.73R
MONROE         CLOUDY    55  45  67 SW13      29.79R
JANESVILLE     MOCLDY    55  46  71 W7        29.76S
$$

WIZ051-052-058>065-066-070>072-291100-
SOUTHEAST WISCONSIN

CITY           SKY/WX    TMP DP  RH WIND       PRES   REMARKS
MILWAUKEE      PTCLDY    58  49  72 SW10      29.73S
WAUKESHA       CLEAR     52  45  76 SW7       29.75R
MILWAUKEE/TIMM   N/A     52  45  76 SW5       29.73S
RACINE         CLEAR     57  47  69 SW9       29.75S
KENOSHA        CLEAR     56  49  77 SW6       29.75S
FOND DU LAC    CLEAR     53  45  74 CALM      29.70S
SHEBOYGAN      PTCLDY    50  48  93 S7        29.69S
WEST BEND      CLEAR     50  48  93 CALM      29.72R
JUNEAU         CLEAR     49  46  90 S6        29.73R
$$

LSZ147-162-291100-
LAKE SUPERIOR

STATION/POSITION TIME  TEMP    WIND        PRES    WAVE
                       AIR SEA DIR/SP/G            HT/PER
                 (UTC) (F)     (DEG/KT/KT) (MB)    (FT/S)
W MID LAKE BUOY  0850   41 37  260/  4/  4 1001.5F   0
DEVILS ISLAND    1000   47     230/ 17/ 18 1002.2R
PORT WING        0930   54     250/ 11/ 16 1003.0S
SAXON HARBOR     0930   54     220/  6/ 12 1002.7S
$$

LMZ867-665-643>646-291100-
LAKE MICHIGAN

STATION/POSITION TIME  TEMP    WIND        PRES    WAVE
                       AIR SEA DIR/SP/G            HT/PER
                 (UTC) (F)     (DEG/KT/KT) (MB)    (FT/S)
CHAMBERS ISLAND  0940   53     200/  5/ 12 1003.4S
N MID LAKE BUOY  0950   42 41  190/  6/  8 1004.3F   1/ 4
NORTHPORT PIER   0940   52     220/  4/  7 1003.7R
SISTER BAY       0906   55     260/ 11/ 13   N/A
KEWAUNEE LAKESHO 0948   55     270/  3/  4 1004.6R
SHEBOYGAN LAKESH 1000   56     240/  7/  7 1005.4R
PORT WASHINGTON  0930   57     280/  5/  7 1006.8F
ATWATER BUOY     0909   56     230/  6/  8 1006.6F
MILWAUKEE LAKESH 0950   61     240/ 11/ 13   N/A
S MID LAKE BUOY  0850   52 47  250/  8/ 10 1007.0F   0
KENOSHA   LAKESH 1000   60     240/  7/ 10 1007.5
$$

TC  - TEMPERATURE IN CELSIUS
VSB - VISIBILITY IN STATUTE MILES
WCI - WIND CHILL INDEX
HX  - HEAT INDEX





USA.gov is the U.S. government's official web portal to all federal, state and local government web resources and services.